Location: Unspecified
(0.0000°N, 0.0000°E)
Time: 01:56:55
(UTC+00:00)

COSMOS 2501 (GLONASS) - Pass Details

Date: 26 October 2019
Orbit: 19086 x 19173 km, 64.0° (Epoch: 18 November)

Event Time Altitude Azimuth Distance (km) Brightness Sun altitude
Rises 14:18:05 0° 202° (SSW) 24,684 ? 49.8°
Reaches altitude 10° 14:42:11 10° 199° (SSW) 23,604 ? 44.1°
Maximum altitude 16:58:57 70° 268° (W) 19,446 ? 11.0°
Drops below altitude 10° 19:39:12 10° 11° (N) 23,630 ? -28.1°
Sets 20:24:28 0° 28° (NNE) 24,702 ? -39.0°
